Orbital Elements at Epoch 2459000.5 (2020-May-31.0) TDB
Reference: JPL 13 (heliocentric ecliptic J2000)
Element | Value | Uncertainty (1-sigma) | Units |
e | .1166522869315613 | 4.9811e-08 | |
a | 2.674393949492149 | 1.6577e-08 | au |
q | 2.362419779127959 | 1.3138e-07 | au |
i | 4.076534427463069 | 5.8703e-06 | deg |
node | 279.6113371145137 | 9.6578e-05 | deg |
peri | 127.1888704886189 | 0.00010523 | deg |
M | 82.53592399413726 | 3.8211e-05 | deg |
tp | 2458634.250521251034 (2019-May-30.75052125) | 0.0001695 | TDB |
period | 1597.483931469567 4.37 | 1.4853e-05 4.067e-08 | d yr |
n | .2253543794138991 | 2.0953e-09 | deg/d |
Q | 2.986368119856338 | 1.8511e-08 | au |
|
| | Orbit Determination Parameters
Additional Information
|